KI4SSU Weather Reports


Display with metric or nautical units.
time (UTC)temp
F
wind
direction
speed
MPH
gust
MPH
rain 1hr
in
rain 24hr
in
rain mn
in
humidity
%
barometer
mb
20260903113921 77 239 0.0 0.0 0.00 0.00 0.00
20260903112921 76 101 0.0 0.0 0.00 0.00 0.00
20260903112421 76 56 0.0 0.0 0.00 0.00 0.00
20260903111921 77 96 0.0 0.0 0.00 0.00 0.00
20260903105921 77 96 1.0 0.0 0.00 0.00 0.00
20260903104421 77 118 0.0 0.0 0.00 0.00 0.00
20260903103421 78 121 0.0 1.0 0.00 0.00 0.00
20260903102921 78 108 0.0 0.0 0.00 0.00 0.00
20260903102421 78 124 0.0 0.0 0.00 0.00 0.00
20260903101921 78 124 0.0 0.0 0.00 0.00 0.00
20260903101421 78 124 0.0 1.0 0.00 0.00 0.00
20260903100421 78 132 0.0 0.0 0.00 0.00 0.00
20260903095921 78 90 0.0 0.0 0.00 0.00 0.00
20260903095421 78 90 0.0 0.0 0.00 0.00 0.00
20260903093421 77 58 0.0 0.0 0.00 0.00 0.00
20260903092921 77 58 0.0 0.0 0.00 0.00 0.00
20260903092421 77 222 0.0 1.0 0.00 0.00 0.00
20260903090921 77 222 0.0 0.0 0.00 0.00 0.00
20260903090421 77 222 0.0 0.0 0.00 0.00 0.00
20260903052421 83 96 1.0 4.0 0.00 0.00 0.00
20260903051421 83 73 3.0 5.0 0.00 0.00 0.00
20260903045921 83 61 1.0 4.0 0.00 0.00 0.00
20260903045421 84 76 2.0 2.0 0.00 0.00 0.00
20260903044921 84 41 2.0 1.0 0.00 0.00 0.00
20260903043922 84 51 1.0 3.0 0.00 0.00 0.00
20260903041422 85 111 1.0 3.0 0.00 0.00 0.00
20260903035922 86 55 2.0 0.0 0.00 0.00 0.00
20260903034422 86 124 1.0 4.0 0.00 0.00 0.00
20260903032422 87 15 3.0 3.0 0.00 0.00 0.00
20260903031922 87 90 2.0 4.0 0.00 0.00 0.00
20260903030422 88 107 1.0 5.0 0.00 0.00 0.00
20260903024422 89 110 2.0 7.0 0.00 0.00 0.00
20260903023922 90 173 3.0 6.0 0.00 0.00 0.00
20260903015922 91 277 3.0 5.0 0.00 0.00 0.00
20260903015422 91 169 3.0 4.0 0.00 0.00 0.00
20260903012422 92 162 3.0 3.0 0.00 0.00 0.00
20260902233422 100 162 2.0 5.0 0.00 0.00 0.00
20260902222923 103 70 3.0 6.0 0.00 0.00 0.00
20260902210424 104 15 3.0 5.0 0.00 0.00 0.00
20260902195424 103 75 2.0 6.0 0.00 0.00 0.00
20260902185424 105 331 0.0 6.0 0.00 0.00 0.00
20260902184923 105 28 1.0 3.0 0.00 0.00 0.00
20260902183424 104 4 1.0 1.0 0.00 0.00 0.00
20260902182424 104 334 4.0 2.0 0.00 0.00 0.00
20260902181424 103 149 2.0 6.0 0.00 0.00 0.00
20260902175924 100 58 2.0 2.0 0.00 0.00 0.00
20260902175424 101 182 1.0 4.0 0.00 0.00 0.00
20260902174924 101 66 2.0 1.0 0.00 0.00 0.00
20260902173924 100 146 2.0 1.0 0.00 0.00 0.00
20260902173424 97 158 2.0 3.0 0.00 0.00 0.00
20260902172424 98 56 3.0 6.0 0.00 0.00 0.00
20260902170924 101 99 3.0 4.0 0.00 0.00 0.00
20260902163425 95 115 3.0 3.0 0.00 0.00 0.00
20260902162424 95 68 0.0 4.0 0.00 0.00 0.00
20260902133925 83 237 1.0 6.0 0.00 0.00 0.00